contact:dominique.lefevre@mio.osupytheas.fr, maurice.libes@osupytheas.fr, didier.mallarino@osupytheas.fr
Project:EMSO http://www.emso-fr.org/EMSO-France
Depth: 2436.0 m
Title:EMSO Ligure Ouest : Data MII capteur CSTAR
DateTime,Latitude,Longitude,Instrument_Serial,Reference_Counts,Signal_Counts,Corrected_Signal_raw_counts,Calculated_Beam_c_inverse_meters,Internal_thermistor_counts
DateTime,Latitude,Longitude,Instrument_Serial,Reference_Counts,Signal_Counts,Corrected_Signal_raw_counts,Calculated_Beam_c_inverse_meters,Internal_thermistor_counts
2020-11-10T00:01:20,42.805,6.029,CST-1368DR,5807,8127,15073,0.142,551
2020-11-10T00:04:22,42.805,6.029,CST-1368DR,5807,8127,15073,0.142,551
2020-11-10T00:07:23,42.805,6.029,CST-1368DR,5807,8126,15070,0.142,550
2020-11-10T00:10:25,42.805,6.029,CST-1368DR,5807,8126,15070,0.142,551
2020-11-10T00:13:26,42.805,6.029,CST-1368DR,5807,8127,15073,0.142,551
2020-11-10T00:16:28,42.805,6.029,CST-1368DR,5807,8127,15073,0.142,551
2020-11-10T00:19:30,42.805,6.029,CST-1368DR,5807,8128,15074,0.141,551
2020-11-10T00:22:31,42.805,6.029,CST-1368DR,5807,8128,15073,0.142,551
2020-11-10T00:25:33,42.805,6.029,CST-1368DR,5807,8127,15072,0.142,551
2020-11-10T00:28:34,42.805,6.029,CST-1368DR,5807,8127,15073,0.142,551
2020-11-10T00:31:36,42.805,6.029,CST-1368DR,5807,8127,15072,0.142,551
2020-11-10T00:34:37,42.805,6.029,CST-1368DR,5807,8125,15069,0.143,551
2020-11-10T00:37:39,42.805,6.029,CST-1368DR,5807,8127,15072,0.142,551
2020-11-10T00:40:41,42.805,6.029,CST-1368DR,5807,8127,15073,0.142,551
2020-11-10T00:43:42,42.805,6.029,CST-1368DR,5807,8126,15070,0.142,551
2020-11-10T00:46:44,42.805,6.029,CST-1368DR,5807,8127,15071,0.142,551
2020-11-10T00:49:45,42.805,6.029,CST-1368DR,5807,8128,15073,0.142,551
2020-11-10T00:52:47,42.805,6.029,CST-1368DR,5807,8127,15072,0.142,551
2020-11-10T00:55:48,42.805,6.029,CST-1368DR,5807,8127,15073,0.142,551
2020-11-10T00:58:50,42.805,6.029,CST-1368DR,5807,8128,15073,0.142,551
2020-11-10T01:01:52,42.805,6.029,CST-1368DR,5807,8127,15072,0.142,551
2020-11-10T01:04:53,42.805,6.029,CST-1368DR,5807,8125,15069,0.143,551
2020-11-10T01:07:55,42.805,6.029,CST-1368DR,5807,8127,15073,0.142,551
2020-11-10T01:10:56,42.805,6.029,CST-1368DR,5807,8127,15073,0.142,551
2020-11-10T01:13:58,42.805,6.029,CST-1368DR,5807,8127,15073,0.142,551
2020-11-10T01:17:00,42.805,6.029,CST-1368DR,5807,8127,15073,0.142,551
2020-11-10T01:20:01,42.805,6.029,CST-1368DR,5807,8127,15073,0.142,551
2020-11-10T01:23:03,42.805,6.029,CST-1368DR,5807,8127,15071,0.142,551
2020-11-10T01:26:04,42.805,6.029,CST-1368DR,5807,8127,15072,0.142,551
2020-11-10T01:29:06,42.805,6.029,CST-1368DR,5807,8127,15071,0.142,551
2020-11-10T01:32:07,42.805,6.029,CST-1368DR,5807,8127,15072,0.142,551
2020-11-10T01:35:09,42.805,6.029,CST-1368DR,5807,8126,15070,0.142,551
2020-11-10T01:38:11,42.805,6.029,CST-1368DR,5807,8127,15071,0.142,551
2020-11-10T01:41:12,42.805,6.029,CST-1368DR,5807,8126,15070,0.142,551
2020-11-10T01:44:14,42.805,6.029,CST-1368DR,5807,8127,15073,0.142,551
2020-11-10T01:47:15,42.805,6.029,CST-1368DR,5807,8127,15072,0.142,551
2020-11-10T01:50:17,42.805,6.029,CST-1368DR,5807,8127,15071,0.142,551
2020-11-10T01:53:19,42.805,6.029,CST-1368DR,5807,8123,15065,0.144,551
2020-11-10T01:56:20,42.805,6.029,CST-1368DR,5807,8127,15073,0.142,551
2020-11-10T01:59:22,42.805,6.029,CST-1368DR,5807,8127,15072,0.142,551
2020-11-10T02:02:23,42.805,6.029,CST-1368DR,5807,8128,15073,0.142,551
2020-11-10T02:05:25,42.805,6.029,CST-1368DR,5807,8127,15071,0.142,551
2020-11-10T02:08:26,42.805,6.029,CST-1368DR,5807,8127,15072,0.142,551
2020-11-10T02:11:28,42.805,6.029,CST-1368DR,5807,8127,15071,0.142,551
2020-11-10T02:14:30,42.805,6.029,CST-1368DR,5807,8127,15072,0.142,551
2020-11-10T02:17:31,42.805,6.029,CST-1368DR,5807,8126,15070,0.142,550
2020-11-10T02:20:33,42.805,6.029,CST-1368DR,5807,8128,15073,0.142,551
2020-11-10T02:23:34,42.805,6.029,CST-1368DR,5807,8127,15071,0.142,551
2020-11-10T02:26:36,42.805,6.029,CST-1368DR,5807,8126,15070,0.142,551
2020-11-10T02:29:37,42.805,6.029,CST-1368DR,5807,8128,15073,0.142,551
2020-11-10T02:32:39,42.805,6.029,CST-1368DR,5807,8125,15069,0.143,551
2020-11-10T02:35:41,42.805,6.029,CST-1368DR,5807,8127,15073,0.142,551
2020-11-10T02:38:42,42.805,6.029,CST-1368DR,5807,8127,15073,0.142,551
2020-11-10T02:41:44,42.805,6.029,CST-1368DR,5807,8125,15068,0.143,551
2020-11-10T02:44:45,42.805,6.029,CST-1368DR,5807,8127,15071,0.142,551
2020-11-10T02:47:47,42.805,6.029,CST-1368DR,5807,8126,15070,0.142,551
2020-11-10T02:50:49,42.805,6.029,CST-1368DR,5807,8127,15072,0.142,551
2020-11-10T02:53:50,42.805,6.029,CST-1368DR,5807,8127,15073,0.142,551
2020-11-10T02:56:52,42.805,6.029,CST-1368DR,5807,8127,15072,0.142,551
2020-11-10T02:59:53,42.805,6.029,CST-1368DR,5807,8127,15071,0.142,551
2020-11-10T03:02:55,42.805,6.029,CST-1368DR,5807,8126,15070,0.142,551
2020-11-10T03:05:56,42.805,6.029,CST-1368DR,5807,8125,15069,0.143,551
2020-11-10T03:08:58,42.805,6.029,CST-1368DR,5807,8127,15071,0.142,551
2020-11-10T03:12:00,42.805,6.029,CST-1368DR,5807,8127,15072,0.142,551
2020-11-10T03:15:01,42.805,6.029,CST-1368DR,5807,8127,15072,0.142,551
2020-11-10T03:18:03,42.805,6.029,CST-1368DR,5807,8127,15072,0.142,551
2020-11-10T03:21:04,42.805,6.029,CST-1368DR,5807,8127,15072,0.142,551
2020-11-10T03:24:06,42.805,6.029,CST-1368DR,5807,8127,15072,0.142,551
2020-11-10T03:27:07,42.805,6.029,CST-1368DR,5807,8127,15072,0.142,550
2020-11-10T03:30:09,42.805,6.029,CST-1368DR,5807,8126,15070,0.142,551
2020-11-10T03:33:11,42.805,6.029,CST-1368DR,5807,8127,15072,0.142,551
2020-11-10T03:36:12,42.805,6.029,CST-1368DR,5807,8126,15070,0.142,551
2020-11-10T03:39:14,42.805,6.029,CST-1368DR,5807,8127,15072,0.142,551
2020-11-10T03:42:15,42.805,6.029,CST-1368DR,5807,8126,15070,0.142,551
2020-11-10T03:45:17,42.805,6.029,CST-1368DR,5807,8127,15071,0.142,551
2020-11-10T03:48:19,42.805,6.029,CST-1368DR,5807,8126,15070,0.142,551
2020-11-10T03:51:20,42.805,6.029,CST-1368DR,5807,8127,15073,0.142,551
2020-11-10T03:54:22,42.805,6.029,CST-1368DR,5807,8127,15072,0.142,551
2020-11-10T03:57:23,42.805,6.029,CST-1368DR,5807,8127,15071,0.142,551
2020-11-10T04:00:25,42.805,6.029,CST-1368DR,5807,8126,15070,0.142,551
2020-11-10T04:03:26,42.805,6.029,CST-1368DR,5807,8127,15071,0.142,551
2020-11-10T04:06:28,42.805,6.029,CST-1368DR,5807,8126,15070,0.142,551
2020-11-10T04:09:30,42.805,6.029,CST-1368DR,5807,8125,15069,0.143,551
2020-11-10T04:12:31,42.805,6.029,CST-1368DR,5807,8126,15070,0.142,551
2020-11-10T04:15:33,42.805,6.029,CST-1368DR,5807,8127,15072,0.142,551
2020-11-10T04:18:34,42.805,6.029,CST-1368DR,5807,8119,15058,0.146,551
2020-11-10T04:21:36,42.805,6.029,CST-1368DR,5807,8127,15071,0.142,551
2020-11-10T04:24:38,42.805,6.029,CST-1368DR,5807,8126,15070,0.142,551
2020-11-10T04:27:39,42.805,6.029,CST-1368DR,5807,8127,15072,0.142,551
2020-11-10T04:30:41,42.805,6.029,CST-1368DR,5807,8126,15070,0.142,550
2020-11-10T04:33:42,42.805,6.029,CST-1368DR,5807,8126,15070,0.142,551
2020-11-10T04:36:44,42.805,6.029,CST-1368DR,5807,8125,15068,0.143,551
2020-11-10T04:39:45,42.805,6.029,CST-1368DR,5807,8126,15070,0.142,551
2020-11-10T04:42:47,42.805,6.029,CST-1368DR,5807,8127,15071,0.142,551
2020-11-10T04:45:49,42.805,6.029,CST-1368DR,5807,8125,15069,0.143,551
2020-11-10T04:48:50,42.805,6.029,CST-1368DR,5807,8127,15072,0.142,551
2020-11-10T04:51:52,42.805,6.029,CST-1368DR,5807,8126,15070,0.142,551
2020-11-10T04:54:53,42.805,6.029,CST-1368DR,5807,8125,15069,0.143,551
2020-11-10T04:57:55,42.805,6.029,CST-1368DR,5807,8126,15070,0.142,551
2020-11-10T05:00:56,42.805,6.029,CST-1368DR,5807,8127,15072,0.142,550
2020-11-10T05:03:58,42.805,6.029,CST-1368DR,5807,8126,15070,0.142,551
2020-11-10T05:07:00,42.805,6.029,CST-1368DR,5807,8126,15070,0.142,550
2020-11-10T05:10:01,42.805,6.029,CST-1368DR,5807,8127,15071,0.142,551
2020-11-10T05:13:03,42.805,6.029,CST-1368DR,5807,8125,15069,0.143,551
2020-11-10T05:16:04,42.805,6.029,CST-1368DR,5807,8126,15070,0.142,551
2020-11-10T05:19:06,42.805,6.029,CST-1368DR,5807,8126,15070,0.142,551
2020-11-10T05:22:08,42.805,6.029,CST-1368DR,5807,8127,15071,0.142,551
2020-11-10T05:25:09,42.805,6.029,CST-1368DR,5807,8127,15071,0.142,551
2020-11-10T05:28:11,42.805,6.029,CST-1368DR,5807,8127,15072,0.142,551
2020-11-10T05:31:12,42.805,6.029,CST-1368DR,5807,8125,15069,0.143,551
2020-11-10T05:34:14,42.805,6.029,CST-1368DR,5807,8126,15070,0.142,551
2020-11-10T05:37:15,42.805,6.029,CST-1368DR,5807,8126,15070,0.142,551
2020-11-10T05:40:17,42.805,6.029,CST-1368DR,5807,8126,15070,0.142,551
2020-11-10T05:43:19,42.805,6.029,CST-1368DR,5807,8126,15070,0.142,551
2020-11-10T05:46:20,42.805,6.029,CST-1368DR,5807,8126,15070,0.142,551
2020-11-10T05:49:22,42.805,6.029,CST-1368DR,5807,8126,15070,0.142,551
2020-11-10T05:52:23,42.805,6.029,CST-1368DR,5807,8126,15070,0.142,551
2020-11-10T05:55:25,42.805,6.029,CST-1368DR,5807,8125,15069,0.143,551
2020-11-10T05:58:26,42.805,6.029,CST-1368DR,5806,8127,15074,0.141,551
2020-11-10T06:01:28,42.805,6.029,CST-1368DR,5807,8126,15070,0.142,551
2020-11-10T06:04:30,42.805,6.029,CST-1368DR,5807,8126,15070,0.142,550
2020-11-10T06:07:31,42.805,6.029,CST-1368DR,5807,8125,15069,0.143,551
2020-11-10T06:10:33,42.805,6.029,CST-1368DR,5807,8125,15069,0.143,551
2020-11-10T06:13:34,42.805,6.029,CST-1368DR,5807,8126,15070,0.142,551
2020-11-10T06:16:36,42.805,6.029,CST-1368DR,5807,8126,15070,0.142,551
2020-11-10T06:19:38,42.805,6.029,CST-1368DR,5807,8125,15069,0.143,551
2020-11-10T06:22:39,42.805,6.029,CST-1368DR,5807,8126,15070,0.142,551
2020-11-10T06:25:41,42.805,6.029,CST-1368DR,5807,8125,15069,0.143,551
2020-11-10T06:28:42,42.805,6.029,CST-1368DR,5807,8125,15068,0.143,551
2020-11-10T06:31:44,42.805,6.029,CST-1368DR,5806,8125,15071,0.142,551
2020-11-10T06:34:45,42.805,6.029,CST-1368DR,5807,8125,15069,0.143,551
2020-11-10T06:37:47,42.805,6.029,CST-1368DR,5807,8126,15070,0.142,551
2020-11-10T06:40:49,42.805,6.029,CST-1368DR,5806,8126,15072,0.142,551
2020-11-10T06:43:50,42.805,6.029,CST-1368DR,5807,8126,15070,0.142,551
2020-11-10T06:46:52,42.805,6.029,CST-1368DR,5807,8126,15070,0.142,551
2020-11-10T06:49:53,42.805,6.029,CST-1368DR,5806,8124,15070,0.142,551
2020-11-10T06:52:55,42.805,6.029,CST-1368DR,5807,8125,15069,0.143,551
2020-11-10T06:55:56,42.805,6.029,CST-1368DR,5807,8126,15070,0.142,551
2020-11-10T06:58:58,42.805,6.029,CST-1368DR,5807,8126,15070,0.142,551
2020-11-10T07:02:00,42.805,6.029,CST-1368DR,5807,8126,15070,0.142,551
2020-11-10T07:05:01,42.805,6.029,CST-1368DR,5807,8125,15069,0.143,551
2020-11-10T07:08:03,42.805,6.029,CST-1368DR,5806,8125,15071,0.142,551
2020-11-10T07:11:04,42.805,6.029,CST-1368DR,5806,8125,15071,0.142,551
2020-11-10T07:14:06,42.805,6.029,CST-1368DR,5807,8126,15070,0.142,551
2020-11-10T07:17:08,42.805,6.029,CST-1368DR,5807,8125,15068,0.143,551
2020-11-10T07:20:09,42.805,6.029,CST-1368DR,5807,8125,15068,0.143,551
2020-11-10T07:23:11,42.805,6.029,CST-1368DR,5806,8125,15071,0.142,551
2020-11-10T07:26:12,42.805,6.029,CST-1368DR,5807,8125,15069,0.143,551
2020-11-10T07:29:14,42.805,6.029,CST-1368DR,5806,8125,15072,0.142,551
2020-11-10T07:32:15,42.805,6.029,CST-1368DR,5806,8125,15072,0.142,551
2020-11-10T07:35:17,42.805,6.029,CST-1368DR,5806,8125,15071,0.142,551
2020-11-10T07:38:19,42.805,6.029,CST-1368DR,5806,8124,15070,0.142,551
2020-11-10T07:41:20,42.805,6.029,CST-1368DR,5806,8124,15070,0.142,551
2020-11-10T07:44:22,42.805,6.029,CST-1368DR,5806,8125,15072,0.142,551
2020-11-10T07:47:23,42.805,6.029,CST-1368DR,5807,8125,15069,0.143,551
2020-11-10T07:50:25,42.805,6.029,CST-1368DR,5807,8125,15068,0.143,551
2020-11-10T07:53:27,42.805,6.029,CST-1368DR,5806,8125,15072,0.142,551
2020-11-10T07:56:28,42.805,6.029,CST-1368DR,5806,8125,15072,0.142,551
2020-11-10T07:59:30,42.805,6.029,CST-1368DR,5806,8125,15072,0.142,551
2020-11-10T08:02:31,42.805,6.029,CST-1368DR,5806,8125,15072,0.142,551
2020-11-10T08:05:33,42.805,6.029,CST-1368DR,5806,8125,15071,0.142,551
2020-11-10T08:08:34,42.805,6.029,CST-1368DR,5806,8125,15072,0.142,551
2020-11-10T08:11:36,42.805,6.029,CST-1368DR,5806,8125,15071,0.142,551
2020-11-10T08:14:38,42.805,6.029,CST-1368DR,5806,8125,15070,0.142,551
2020-11-10T08:17:39,42.805,6.029,CST-1368DR,5806,8124,15070,0.142,551
2020-11-10T08:20:41,42.805,6.029,CST-1368DR,5806,8125,15072,0.142,551
2020-11-10T08:23:42,42.805,6.029,CST-1368DR,5806,8125,15070,0.142,551
2020-11-10T08:26:44,42.805,6.029,CST-1368DR,5806,8125,15071,0.142,551
2020-11-10T08:29:45,42.805,6.029,CST-1368DR,5806,8125,15071,0.142,551
2020-11-10T08:32:47,42.805,6.029,CST-1368DR,5806,8125,15072,0.142,551
2020-11-10T08:35:49,42.805,6.029,CST-1368DR,5806,8125,15070,0.142,551
2020-11-10T08:38:50,42.805,6.029,CST-1368DR,5806,8125,15071,0.142,551
2020-11-10T08:41:52,42.805,6.029,CST-1368DR,5806,8125,15071,0.142,551
2020-11-10T08:44:53,42.805,6.029,CST-1368DR,5806,8125,15071,0.142,551
2020-11-10T08:47:55,42.805,6.029,CST-1368DR,5806,8125,15071,0.142,551
2020-11-10T08:50:57,42.805,6.029,CST-1368DR,5806,8125,15071,0.142,551
2020-11-10T08:53:58,42.805,6.029,CST-1368DR,5806,8125,15070,0.142,551
2020-11-10T08:57:00,42.805,6.029,CST-1368DR,5806,8124,15069,0.143,551
2020-11-10T09:00:01,42.805,6.029,CST-1368DR,5806,8125,15071,0.142,551
2020-11-10T09:03:03,42.805,6.029,CST-1368DR,5806,8124,15070,0.142,551
2020-11-10T09:06:04,42.805,6.029,CST-1368DR,5806,8124,15070,0.142,551
2020-11-10T09:09:06,42.805,6.029,CST-1368DR,5806,8124,15070,0.142,551
2020-11-10T09:12:08,42.805,6.029,CST-1368DR,5806,8125,15070,0.142,551
2020-11-10T09:15:09,42.805,6.029,CST-1368DR,5806,8124,15069,0.143,551
2020-11-10T09:18:11,42.805,6.029,CST-1368DR,5806,8124,15068,0.143,551
2020-11-10T09:21:12,42.805,6.029,CST-1368DR,5806,8125,15071,0.142,551
2020-11-10T09:24:14,42.805,6.029,CST-1368DR,5806,8125,15071,0.142,551
2020-11-10T09:27:16,42.805,6.029,CST-1368DR,5806,8125,15071,0.142,551
2020-11-10T09:30:17,42.805,6.029,CST-1368DR,5806,8125,15070,0.142,551
2020-11-10T09:33:19,42.805,6.029,CST-1368DR,5806,8124,15069,0.143,551
2020-11-10T09:36:20,42.805,6.029,CST-1368DR,5806,8124,15070,0.142,551
2020-11-10T09:39:22,42.805,6.029,CST-1368DR,5806,8124,15069,0.143,551
2020-11-10T09:42:23,42.805,6.029,CST-1368DR,5806,8124,15070,0.142,551
2020-11-10T09:45:25,42.805,6.029,CST-1368DR,5806,8124,15069,0.143,551
2020-11-10T09:48:27,42.805,6.029,CST-1368DR,5806,8125,15070,0.142,551
2020-11-10T09:51:28,42.805,6.029,CST-1368DR,5806,8124,15070,0.142,551
2020-11-10T09:54:30,42.805,6.029,CST-1368DR,5806,8124,15069,0.143,551
2020-11-10T09:57:31,42.805,6.029,CST-1368DR,5806,8125,15071,0.142,551
2020-11-10T10:00:33,42.805,6.029,CST-1368DR,5806,8125,15071,0.142,551
2020-11-10T10:03:34,42.805,6.029,CST-1368DR,5806,8123,15067,0.143,551
2020-11-10T10:06:36,42.805,6.029,CST-1368DR,5806,8122,15066,0.143,551
2020-11-10T10:09:38,42.805,6.029,CST-1368DR,5806,8124,15069,0.143,551
2020-11-10T10:12:39,42.805,6.029,CST-1368DR,5806,8125,15070,0.142,551
2020-11-10T10:15:41,42.805,6.029,CST-1368DR,5806,8124,15069,0.143,551
2020-11-10T10:18:42,42.805,6.029,CST-1368DR,5806,8124,15069,0.143,551
2020-11-10T10:21:44,42.805,6.029,CST-1368DR,5806,8123,15066,0.143,551
2020-11-10T10:24:46,42.805,6.029,CST-1368DR,5806,8124,15070,0.142,551
2020-11-10T10:27:47,42.805,6.029,CST-1368DR,5806,8124,15070,0.142,551
2020-11-10T10:30:49,42.805,6.029,CST-1368DR,5806,8124,15068,0.143,551
2020-11-10T10:33:50,42.805,6.029,CST-1368DR,5806,8124,15070,0.142,551
2020-11-10T10:36:52,42.805,6.029,CST-1368DR,5806,8125,15071,0.142,551
2020-11-10T10:39:53,42.805,6.029,CST-1368DR,5806,8124,15069,0.143,551
2020-11-10T10:42:55,42.805,6.029,CST-1368DR,5806,8124,15069,0.143,551
2020-11-10T10:45:57,42.805,6.029,CST-1368DR,5806,8124,15069,0.143,551
2020-11-10T10:48:58,42.805,6.029,CST-1368DR,5806,8123,15067,0.143,551
2020-11-10T10:52:00,42.805,6.029,CST-1368DR,5806,8124,15068,0.143,551
2020-11-10T10:55:01,42.805,6.029,CST-1368DR,5806,8124,15069,0.143,551
2020-11-10T10:58:03,42.805,6.029,CST-1368DR,5806,8123,15067,0.143,551
2020-11-10T11:01:05,42.805,6.029,CST-1368DR,5806,8124,15069,0.143,551
2020-11-10T11:04:06,42.805,6.029,CST-1368DR,5806,8124,15070,0.142,551
2020-11-10T11:07:08,42.805,6.029,CST-1368DR,5806,8124,15069,0.143,551
2020-11-10T11:10:09,42.805,6.029,CST-1368DR,5806,8124,15069,0.143,551
2020-11-10T11:13:11,42.805,6.029,CST-1368DR,5806,8123,15068,0.143,551
2020-11-10T11:16:12,42.805,6.029,CST-1368DR,5806,8125,15070,0.142,551
2020-11-10T11:19:14,42.805,6.029,CST-1368DR,5806,8124,15069,0.143,551
2020-11-10T11:22:16,42.805,6.029,CST-1368DR,5806,8124,15069,0.143,551
2020-11-10T11:25:17,42.805,6.029,CST-1368DR,5806,8123,15068,0.143,551
2020-11-10T11:28:19,42.805,6.029,CST-1368DR,5806,8123,15068,0.143,551
2020-11-10T11:31:20,42.805,6.029,CST-1368DR,5806,8122,15065,0.144,551
2020-11-10T11:34:22,42.805,6.029,CST-1368DR,5806,8124,15069,0.143,551
2020-11-10T11:37:23,42.805,6.029,CST-1368DR,5806,8124,15069,0.143,551
2020-11-10T11:40:25,42.805,6.029,CST-1368DR,5806,8123,15067,0.143,550
2020-11-10T11:43:27,42.805,6.029,CST-1368DR,5806,8125,15071,0.142,551
2020-11-10T11:46:28,42.805,6.029,CST-1368DR,5806,8124,15068,0.143,551
2020-11-10T11:49:30,42.805,6.029,CST-1368DR,5806,8123,15068,0.143,551
2020-11-10T11:52:31,42.805,6.029,CST-1368DR,5806,8123,15067,0.143,551
2020-11-10T11:55:33,42.805,6.029,CST-1368DR,5806,8123,15068,0.143,551
2020-11-10T11:58:35,42.805,6.029,CST-1368DR,5806,8124,15069,0.143,551
2020-11-10T12:01:36,42.805,6.029,CST-1368DR,5806,8123,15068,0.143,551
2020-11-10T12:04:38,42.805,6.029,CST-1368DR,5806,8124,15070,0.142,551
2020-11-10T12:07:39,42.805,6.029,CST-1368DR,5806,8124,15068,0.143,551
2020-11-10T12:10:41,42.805,6.029,CST-1368DR,5806,8125,15070,0.142,551
2020-11-10T12:13:42,42.805,6.029,CST-1368DR,5806,8124,15069,0.143,551
2020-11-10T12:16:44,42.805,6.029,CST-1368DR,5806,8123,15068,0.143,551
2020-11-10T12:19:46,42.805,6.029,CST-1368DR,5806,8124,15068,0.143,551
2020-11-10T12:22:47,42.805,6.029,CST-1368DR,5806,8124,15069,0.143,551
2020-11-10T12:25:49,42.805,6.029,CST-1368DR,5806,8122,15066,0.143,551
2020-11-10T12:28:50,42.805,6.029,CST-1368DR,5806,8124,15068,0.143,551
2020-11-10T12:31:52,42.805,6.029,CST-1368DR,5806,8123,15068,0.143,550
2020-11-10T12:34:54,42.805,6.029,CST-1368DR,5806,8123,15068,0.143,551
2020-11-10T12:37:55,42.805,6.029,CST-1368DR,5806,8122,15066,0.143,551
2020-11-10T12:40:57,42.805,6.029,CST-1368DR,5806,8123,15068,0.143,551
2020-11-10T12:43:58,42.805,6.029,CST-1368DR,5806,8123,15066,0.143,551
2020-11-10T12:47:00,42.805,6.029,CST-1368DR,5806,8124,15068,0.143,551
2020-11-10T12:50:01,42.805,6.029,CST-1368DR,5806,8124,15068,0.143,551
2020-11-10T12:53:03,42.805,6.029,CST-1368DR,5806,8124,15069,0.143,550
2020-11-10T12:56:05,42.805,6.029,CST-1368DR,5806,8123,15067,0.143,551
2020-11-10T12:59:06,42.805,6.029,CST-1368DR,5806,8124,15069,0.143,551
2020-11-10T13:02:08,42.805,6.029,CST-1368DR,5806,8123,15068,0.143,551
2020-11-10T13:05:09,42.805,6.029,CST-1368DR,5806,8121,15063,0.144,551
2020-11-10T13:08:11,42.805,6.029,CST-1368DR,5806,8123,15067,0.143,551
2020-11-10T13:11:12,42.805,6.029,CST-1368DR,5806,8122,15065,0.144,551
2020-11-10T13:14:14,42.805,6.029,CST-1368DR,5806,8124,15069,0.143,550
2020-11-10T13:17:16,42.805,6.029,CST-1368DR,5806,8123,15068,0.143,551
2020-11-10T13:20:17,42.805,6.029,CST-1368DR,5806,8123,15067,0.143,551
2020-11-10T13:23:19,42.805,6.029,CST-1368DR,5806,8123,15068,0.143,551
2020-11-10T13:26:20,42.805,6.029,CST-1368DR,5806,8123,15068,0.143,551
2020-11-10T13:29:22,42.805,6.029,CST-1368DR,5806,8123,15067,0.143,551
2020-11-10T13:32:24,42.805,6.029,CST-1368DR,5806,8124,15068,0.143,551
2020-11-10T13:35:25,42.805,6.029,CST-1368DR,5806,8124,15069,0.143,551
2020-11-10T13:38:27,42.805,6.029,CST-1368DR,5806,8124,15068,0.143,551
2020-11-10T13:41:28,42.805,6.029,CST-1368DR,5806,8124,15069,0.143,551
2020-11-10T13:44:30,42.805,6.029,CST-1368DR,5806,8124,15068,0.143,551
2020-11-10T13:47:31,42.805,6.029,CST-1368DR,5806,8123,15067,0.143,551
2020-11-10T13:50:33,42.805,6.029,CST-1368DR,5806,8123,15067,0.143,551
2020-11-10T13:53:35,42.805,6.029,CST-1368DR,5806,8124,15069,0.143,551
2020-11-10T13:56:36,42.805,6.029,CST-1368DR,5806,8124,15068,0.143,551
2020-11-10T13:59:38,42.805,6.029,CST-1368DR,5806,8119,15060,0.145,551
2020-11-10T14:02:39,42.805,6.029,CST-1368DR,5806,8124,15070,0.142,551
2020-11-10T14:05:41,42.805,6.029,CST-1368DR,5806,8123,15067,0.143,551
2020-11-10T14:08:43,42.805,6.029,CST-1368DR,5806,8124,15068,0.143,551
2020-11-10T14:11:44,42.805,6.029,CST-1368DR,5805,8123,15069,0.143,551
2020-11-10T14:14:46,42.805,6.029,CST-1368DR,5806,8123,15066,0.143,551
2020-11-10T14:17:47,42.805,6.029,CST-1368DR,5806,8124,15068,0.143,551
2020-11-10T14:20:49,42.805,6.029,CST-1368DR,5806,8124,15069,0.143,551
2020-11-10T14:23:50,42.805,6.029,CST-1368DR,5806,8124,15068,0.143,551
2020-11-10T14:26:52,42.805,6.029,CST-1368DR,5805,8123,15070,0.142,551
2020-11-10T14:29:54,42.805,6.029,CST-1368DR,5805,8123,15069,0.143,551
2020-11-10T14:32:55,42.805,6.029,CST-1368DR,5805,8123,15069,0.143,551
2020-11-10T14:35:57,42.805,6.029,CST-1368DR,5805,8123,15069,0.143,551
2020-11-10T14:38:58,42.805,6.029,CST-1368DR,5805,8123,15069,0.143,551
2020-11-10T14:42:00,42.805,6.029,CST-1368DR,5805,8123,15069,0.143,550
2020-11-10T14:45:01,42.805,6.029,CST-1368DR,5805,8122,15068,0.143,551
2020-11-10T14:48:03,42.805,6.029,CST-1368DR,5805,8123,15070,0.142,551
2020-11-10T14:51:05,42.805,6.029,CST-1368DR,5805,8122,15068,0.143,551
2020-11-10T14:54:06,42.805,6.029,CST-1368DR,5805,8124,15071,0.142,551
2020-11-10T14:57:08,42.805,6.029,CST-1368DR,5805,8124,15071,0.142,551
2020-11-10T15:00:09,42.805,6.029,CST-1368DR,5805,8122,15068,0.143,551
2020-11-10T15:03:11,42.805,6.029,CST-1368DR,5805,8123,15069,0.143,551
2020-11-10T15:06:13,42.805,6.029,CST-1368DR,5805,8123,15069,0.143,551
2020-11-10T15:09:14,42.805,6.029,CST-1368DR,5805,8123,15069,0.143,551
2020-11-10T15:12:16,42.805,6.029,CST-1368DR,5805,8124,15072,0.142,551
2020-11-10T15:15:17,42.805,6.029,CST-1368DR,5805,8123,15069,0.143,551
2020-11-10T15:18:19,42.805,6.029,CST-1368DR,5805,8122,15068,0.143,551
2020-11-10T15:21:20,42.805,6.029,CST-1368DR,5805,8122,15068,0.143,551
2020-11-10T15:24:22,42.805,6.029,CST-1368DR,5805,8122,15068,0.143,551
2020-11-10T15:27:24,42.805,6.029,CST-1368DR,5805,8122,15068,0.143,551
2020-11-10T15:30:25,42.805,6.029,CST-1368DR,5805,8122,15067,0.143,551
2020-11-10T15:33:27,42.805,6.029,CST-1368DR,5805,8124,15071,0.142,551
2020-11-10T15:36:28,42.805,6.029,CST-1368DR,5805,8123,15070,0.142,551
2020-11-10T15:39:30,42.805,6.029,CST-1368DR,5805,8122,15068,0.143,551
2020-11-10T15:42:31,42.805,6.029,CST-1368DR,5805,8123,15070,0.142,551
2020-11-10T15:45:33,42.805,6.029,CST-1368DR,5805,8123,15070,0.142,551
2020-11-10T15:48:35,42.805,6.029,CST-1368DR,5805,8122,15068,0.143,551
2020-11-10T15:51:36,42.805,6.029,CST-1368DR,5805,8124,15071,0.142,551
2020-11-10T15:54:38,42.805,6.029,CST-1368DR,5805,8123,15069,0.143,551
2020-11-10T15:57:39,42.805,6.029,CST-1368DR,5805,8123,15069,0.143,551
2020-11-10T16:00:41,42.805,6.029,CST-1368DR,5805,8124,15072,0.142,551
2020-11-10T16:03:43,42.805,6.029,CST-1368DR,5805,8122,15068,0.143,551
2020-11-10T16:06:44,42.805,6.029,CST-1368DR,5805,8123,15070,0.142,551
2020-11-10T16:09:46,42.805,6.029,CST-1368DR,5805,8121,15067,0.143,551
2020-11-10T16:12:47,42.805,6.029,CST-1368DR,5805,8122,15067,0.143,551
2020-11-10T16:15:49,42.805,6.029,CST-1368DR,5805,8122,15067,0.143,551
2020-11-10T16:18:50,42.805,6.029,CST-1368DR,5805,8123,15069,0.143,551
2020-11-10T16:21:52,42.805,6.029,CST-1368DR,5805,8123,15069,0.143,551
2020-11-10T16:24:54,42.805,6.029,CST-1368DR,5805,8123,15069,0.143,551
2020-11-10T16:27:55,42.805,6.029,CST-1368DR,5805,8123,15069,0.143,551
2020-11-10T16:30:57,42.805,6.029,CST-1368DR,5805,8123,15070,0.142,551
2020-11-10T16:33:58,42.805,6.029,CST-1368DR,5805,8122,15068,0.143,551
2020-11-10T16:37:00,42.805,6.029,CST-1368DR,5805,8123,15069,0.143,551
2020-11-10T16:40:02,42.805,6.029,CST-1368DR,5805,8123,15069,0.143,551
2020-11-10T16:43:03,42.805,6.029,CST-1368DR,5805,8122,15068,0.143,551
2020-11-10T16:46:05,42.805,6.029,CST-1368DR,5805,8122,15068,0.143,551
2020-11-10T16:49:06,42.805,6.029,CST-1368DR,5805,8124,15071,0.142,551
2020-11-10T16:52:08,42.805,6.029,CST-1368DR,5805,8122,15068,0.143,550